Regional Weather Roundup
Issued by NWS Little Rock, AR

Home | Current Version | Previous Version | Graphics & Text | Print | Product List | Glossary On
Versions: 1 2 3 4 5 6 7 8 9 10 11 12 13 14 15 16 17 18 19 20 21 22 23 24 25 26 27 28 29 30 31 32
000
ASUS44 KLZK 230012
RWRLZK

WEATHER ROUNDUP FOR ARKANSAS
NATIONAL WEATHER SERVICE LITTLE ROCK AR
600 PM CST THU FEB 22 2018

NOTE: "FAIR" INDICATES FEW OR NO CLOUDS BELOW 12,000 FEET WITH NO
SIGNIFICANT WEATHER AND/OR OBSTRUCTIONS TO VISIBILITY.

ARZ001-003-010-029-230100-
NORTHWEST ARKANSAS

CITY           SKY/WX    TMP DP  RH WIND       PRES   REMARKS
FAYETTEVILLE   RAIN      47  47 100 E5        30.17R FOG
6HR MIN TEMP:  47; 6HR MAX TEMP:  53; 6HR PCP:  0.18;

FORT SMITH     LGT RAIN  46  45  96 NW5       30.20R
6HR MIN TEMP:  45; 6HR MAX TEMP:  47; 6HR PCP:  0.36;

HARRISON       CLOUDY    41  41 100 E8        30.18S
6HR MIN TEMP:  40; 6HR MAX TEMP:  43;

BENTONVILLE    LGT RAIN  43  42  97 SE8       30.18R FOG
6HR MIN TEMP:  42; 6HR MAX TEMP:  49; 6HR PCP:  0.50;

ROGERS         RAIN      43  41  93 E16       30.15F FOG
SILOAM SPGS    RAIN      45  44  97 CALM      30.19R FOG
6HR MIN TEMP:  45; 6HR MAX TEMP:  51;

HIGHFILL       RAIN      43  43 100 E9        30.14S FOG
SPRINGDALE     LGT RAIN  43  43 100 W12       30.22R FOG
$$

ARZ004-005-016-230100-
NORTH CENTRAL ARKANSAS

CITY           SKY/WX    TMP DP  RH WIND       PRES   REMARKS
BATESVILLE     LGT RAIN  44  43  96 NE7       30.26F
6HR MIN TEMP:  41; 6HR MAX TEMP:  45; 6HR PCP:  0.07;

FLIPPIN        LGT RAIN  41  40  96 E8        30.21F
6HR MIN TEMP:  40; 6HR MAX TEMP:  43; 6HR PCP:  0.15;

MTN HOME       LGT RAIN  40  40 100 SE12      30.20S
6HR MIN TEMP:  39; 6HR MAX TEMP:  41; 6HR PCP:  0.13;

$$

ARZ040-041-230100-
WEST CENTRAL ARKANSAS

CITY           SKY/WX    TMP DP  RH WIND       PRES   REMARKS
MENA           CLOUDY    48  46  93 CALM      30.18S
MOUNT IDA      LGT RAIN  47  47 100 CALM      30.17R
6HR MIN TEMP:  45; 6HR MAX TEMP:  47; 6HR PCP:  1.23;

$$

ARZ009-017-025-026-028-230100-
NORTHEAST ARKANSAS

CITY           SKY/WX    TMP DP  RH WIND       PRES   REMARKS
JONESBORO      LGT RAIN  47  46  97 N3        30.30F
6HR MIN TEMP:  44; 6HR MAX TEMP:  48; 6HR PCP:  0.04;

NEWPORT        LGT RAIN  45  44  97 NE14      30.27F
6HR MIN TEMP:  42; 6HR MAX TEMP:  45; 6HR PCP:  0.05;

WALNUT RIDGE   LGT RAIN  44  42  93 NE8       30.30S
6HR MIN TEMP:  42; 6HR MAX TEMP:  44; 6HR PCP: TRACE;

BLYTHEVILLE    CLOUDY    50  49  96 N5        30.31R
6HR MIN TEMP:  47; 6HR MAX TEMP:  53;

$$

ARZ022-023-033-042-044-230100-
CENTRAL ARKANSAS

CITY           SKY/WX    TMP DP  RH WIND       PRES   REMARKS
LITTLE ROCK    LGT RAIN  46  45  96 E8        30.24R
6HR MIN TEMP:  44; 6HR MAX TEMP:  46; 6HR PCP:  0.84;

N LITTLE ROCK    N/A     44  44 100 CALM      30.21R
6HR MIN TEMP:  43; 6HR MAX TEMP:  45;

JACKSONVILLE   LGT RAIN  46  46  99 CALM      30.22S
6HR MIN TEMP:  45; 6HR MAX TEMP:  47; 6HR PCP:  1.51;

SEARCY         TSTM      45  45 100 NW9       30.24S FOG
6HR MIN TEMP:  45; 6HR MAX TEMP:  48;

HOT SPRINGS    CLOUDY    46  45  96 VRB6      30.20F
6HR MIN TEMP:  46; 6HR MAX TEMP:  48; 6HR PCP:  0.91;

RUSSELLVILLE   LGT RAIN  45  45 100 CALM      30.23R
6HR MIN TEMP:  43; 6HR MAX TEMP:  45; 6HR PCP:  0.53;

CLINTON        LGT RAIN  45  45 100 VRB5      30.23S
$$

ARZ036-230100-
EAST ARKANSAS

CITY           SKY/WX    TMP DP  RH WIND       PRES   REMARKS
WEST MEMPHIS   CLOUDY    50  50 100 NE8       30.26F
6HR MIN TEMP:  47; 6HR MAX TEMP:  52; 6HR PCP: TRACE;

$$

ARZ050-053-066-070-073-230100-
SOUTHWEST ARKANSAS

CITY           SKY/WX    TMP DP  RH WIND       PRES   REMARKS
ARKADELPHIA    CLOUDY    46  45  96 NE5       30.23R
6HR MIN TEMP:  45; 6HR MAX TEMP:  46; 6HR PCP:  0.99;

CAMDEN         CLOUDY    46  45  93 CALM      30.21F
TEXARKANA      CLOUDY    47  47 100 VRB5      30.17F FOG
6HR MIN TEMP:  45; 6HR MAX TEMP:  47; 6HR PCP:  0.27;

EL DORADO      LGT RAIN  48  48 100 NE7       30.22R VSB 3/4
6HR MIN TEMP:  47; 6HR MAX TEMP:  48; 6HR PCP:  0.24;

DE QUEEN       CLOUDY    47  47 100 E5        30.18R FOG
6HR MIN TEMP:  47; 6HR MAX TEMP:  48;

$$

ARZ056-057-069-230100-
SOUTHEAST ARKANSAS

CITY           SKY/WX    TMP DP  RH WIND       PRES   REMARKS
PINE BLUFF     LGT RAIN  47  46  97 NE6       30.23S
6HR MIN TEMP:  44; 6HR MAX TEMP:  47; 6HR PCP:  0.31;

STUTTGART      CLOUDY    47  46  97 NE9       30.24S
6HR MIN TEMP:  45; 6HR MAX TEMP:  48; 6HR PCP:  0.35;

MONTICELLO     CLOUDY    50  48  93 E6        30.21S
6HR MIN TEMP:  45; 6HR MAX TEMP:  50; 6HR PCP:  0.14;


$$






USA.gov is the U.S. government's official web portal to all federal, state and local government web resources and services.